GXA6224 KELP-KPHX

Flight info

Callsign GXA6224
Flight time 0h 59m
Altitude 36000
Route ATKNN5 ATKNN DRRVR PINNG1
Aircraft A321/M-SDE3FGHIRWY/LB1

Departure

Time 2026-04-25 02:31
Airport El Paso International Airport (KELP)

Arrival

Time 2026-04-25 03:31
Airport Phoenix Sky Harbor International Airport (KPHX)
Time Latitude Longitude Altitude Speed Heading
2026-04-25 02:18 31.81580 -106.37179 3947 ft 0 kts 139°
2026-04-25 02:26 31.81573 -106.37178 3947 ft 1 kts 182°
2026-04-25 02:26 31.81569 -106.37189 3947 ft 2 kts 257°
2026-04-25 02:26 31.81584 -106.37201 3947 ft 3 kts 335°
2026-04-25 02:26 31.81612 -106.37215 3947 ft 6 kts 340°
2026-04-25 02:27 31.81657 -106.37203 3947 ft 8 kts 36°
2026-04-25 02:27 31.81702 -106.37145 3947 ft 13 kts 50°
2026-04-25 02:27 31.81765 -106.37056 3947 ft 15 kts 50°
2026-04-25 02:27 31.81837 -106.36957 3947 ft 17 kts 49°
2026-04-25 02:28 31.81908 -106.36886 3947 ft 12 kts
2026-04-25 02:28 31.81976 -106.36947 3946 ft 13 kts 321°
2026-04-25 02:28 31.82055 -106.36961 3946 ft 13 kts 42°
2026-04-25 02:28 31.82117 -106.36903 3947 ft 10 kts
2026-04-25 02:29 31.82168 -106.36933 3946 ft 8 kts 321°
2026-04-25 02:29 31.82196 -106.36960 3946 ft 0 kts 321°
2026-04-25 02:29 31.82197 -106.36961 3946 ft 1 kts 321°
2026-04-25 02:29 31.82211 -106.36974 3946 ft 6 kts 321°
2026-04-25 02:30 31.82260 -106.37028 3946 ft 10 kts 299°
2026-04-25 02:30 31.82245 -106.37076 3946 ft 0 kts 230°
2026-04-25 02:30 31.82243 -106.37079 3946 ft 0 kts 230°
2026-04-25 02:30 31.82227 -106.37102 3946 ft 14 kts 229°
2026-04-25 02:31 31.82008 -106.37407 3947 ft 83 kts 230°
2026-04-25 02:31 31.81501 -106.38113 3947 ft 141 kts 230°
2026-04-25 02:31 31.80771 -106.39125 4026 ft 178 kts 231°
2026-04-25 02:31 31.80017 -106.40305 4675 ft 180 kts 236°
2026-04-25 02:32 31.79381 -106.41577 5313 ft 181 kts 243°
2026-04-25 02:32 31.78775 -106.42905 5741 ft 191 kts 244°
2026-04-25 02:32 31.78133 -106.44361 5827 ft 210 kts 244°
2026-04-25 02:32 31.77422 -106.45949 5920 ft 230 kts 244°
2026-04-25 02:33 31.76630 -106.47698 6032 ft 254 kts 244°
2026-04-25 02:33 31.76043 -106.49650 6543 ft 257 kts 267°
2026-04-25 02:33 31.76420 -106.51711 7100 ft 264 kts 292°
2026-04-25 02:33 31.77362 -106.53591 7683 ft 269 kts 302°
2026-04-25 02:34 31.78494 -106.55361 8304 ft 273 kts 304°
2026-04-25 02:34 31.79674 -106.57120 9027 ft 276 kts 303°
2026-04-25 02:34 31.80679 -106.59026 9643 ft 274 kts 287°
2026-04-25 02:34 31.81117 -106.61193 10235 ft 274 kts 276°
2026-04-25 02:35 31.81432 -106.63453 10520 ft 290 kts 277°
2026-04-25 02:35 31.81786 -106.65874 10648 ft 310 kts 278°
2026-04-25 02:35 31.82165 -106.68426 10993 ft 321 kts 278°
2026-04-25 02:35 31.82552 -106.71023 11549 ft 324 kts 278°
2026-04-25 02:36 31.82942 -106.73637 12176 ft 326 kts 278°
2026-04-25 02:36 31.83206 -106.75412 12588 ft 328 kts 278°
2026-04-25 02:36 31.83594 -106.78028 13174 ft 330 kts 278°
2026-04-25 02:36 31.83988 -106.80704 13780 ft 333 kts 278°
2026-04-25 02:37 31.84383 -106.83399 14315 ft 336 kts 278°
2026-04-25 02:37 31.84778 -106.86113 14869 ft 338 kts 278°
2026-04-25 02:37 31.85171 -106.88843 15282 ft 339 kts 278°
2026-04-25 02:37 31.85564 -106.91590 15850 ft 342 kts 278°
2026-04-25 02:38 31.85958 -106.94352 16416 ft 344 kts 278°
2026-04-25 02:38 31.86356 -106.97131 16979 ft 345 kts 278°
2026-04-25 02:38 31.86755 -106.99924 17522 ft 347 kts 277°
2026-04-25 02:38 31.87158 -107.02744 18003 ft 351 kts 277°
2026-04-25 02:39 31.87562 -107.05578 18515 ft 352 kts 278°
2026-04-25 02:39 31.87966 -107.08419 19023 ft 352 kts 278°
2026-04-25 02:39 31.88375 -107.11263 19519 ft 353 kts 278°
2026-04-25 02:39 31.88784 -107.14112 20003 ft 354 kts 278°
2026-04-25 02:40 31.89194 -107.16969 20473 ft 355 kts 278°
2026-04-25 02:40 31.89606 -107.19838 20952 ft 356 kts 278°
2026-04-25 02:40 31.90017 -107.22713 21414 ft 357 kts 278°
2026-04-25 02:40 31.90428 -107.25597 21887 ft 358 kts 278°
2026-04-25 02:41 31.90838 -107.28489 22342 ft 359 kts 278°
2026-04-25 02:41 31.91246 -107.31393 22790 ft 360 kts 278°
2026-04-25 02:41 31.91656 -107.34310 23237 ft 362 kts 278°
2026-04-25 02:41 31.92067 -107.37238 23627 ft 363 kts 278°
2026-04-25 02:42 31.92476 -107.40173 23999 ft 364 kts 277°
2026-04-25 02:42 31.92889 -107.43122 24336 ft 366 kts 277°
2026-04-25 02:42 31.93303 -107.46083 24715 ft 367 kts 277°
2026-04-25 02:42 31.93718 -107.49050 25102 ft 368 kts 277°
2026-04-25 02:43 31.94133 -107.52026 25468 ft 369 kts 277°
2026-04-25 02:43 31.94549 -107.55012 25841 ft 370 kts 277°
2026-04-25 02:43 31.94966 -107.58009 26201 ft 371 kts 277°
2026-04-25 02:43 31.95382 -107.61010 26559 ft 372 kts 277°
2026-04-25 02:44 31.95799 -107.64022 26905 ft 374 kts 277°
2026-04-25 02:44 31.96218 -107.67050 27243 ft 375 kts 277°
2026-04-25 02:44 31.96637 -107.70082 27588 ft 376 kts 277°
2026-04-25 02:44 31.97057 -107.73128 27932 ft 377 kts 277°
2026-04-25 02:45 31.97478 -107.76183 28275 ft 378 kts 277°
2026-04-25 02:45 31.97901 -107.79244 28607 ft 379 kts 277°
2026-04-25 02:45 31.98320 -107.82313 28894 ft 381 kts 277°
2026-04-25 02:45 31.98742 -107.85400 29205 ft 382 kts 277°
2026-04-25 02:46 31.99166 -107.88492 29521 ft 383 kts 277°
2026-04-25 02:46 31.99592 -107.91596 29821 ft 384 kts 277°
2026-04-25 02:46 32.00015 -107.94709 30076 ft 386 kts 277°
2026-04-25 02:46 32.00437 -107.97827 30325 ft 386 kts 277°
2026-04-25 02:47 32.00862 -108.00960 30569 ft 387 kts 277°
2026-04-25 02:47 32.01281 -108.04054 30801 ft 388 kts 277°
2026-04-25 02:47 32.01704 -108.07195 31019 ft 389 kts 277°
2026-04-25 02:47 32.02126 -108.10339 31283 ft 388 kts 277°
2026-04-25 02:48 32.02547 -108.13470 31597 ft 386 kts 278°
2026-04-25 02:48 32.02966 -108.16588 31916 ft 384 kts 278°
2026-04-25 02:48 32.03383 -108.19695 32235 ft 383 kts 278°
2026-04-25 02:48 32.03797 -108.22786 32543 ft 381 kts 278°
2026-04-25 02:49 32.04209 -108.25860 32850 ft 379 kts 278°
2026-04-25 02:49 32.04619 -108.28927 33164 ft 378 kts 278°
2026-04-25 02:49 32.05027 -108.31974 33469 ft 376 kts 278°
2026-04-25 02:49 32.05430 -108.35016 33772 ft 375 kts 278°
2026-04-25 02:50 32.05829 -108.38045 34038 ft 373 kts 278°
2026-04-25 02:50 32.06225 -108.41066 34286 ft 372 kts 278°
2026-04-25 02:50 32.06618 -108.44073 34561 ft 370 kts 278°
2026-04-25 02:50 32.07010 -108.47057 34880 ft 367 kts 278°
2026-04-25 02:51 32.07399 -108.50024 35162 ft 365 kts 278°
2026-04-25 02:51 32.07788 -108.52978 35435 ft 364 kts 278°
2026-04-25 02:51 32.08175 -108.55918 35684 ft 363 kts 278°
2026-04-25 02:51 32.08559 -108.58859 35813 ft 362 kts 278°
2026-04-25 02:52 32.08939 -108.61764 35843 ft 357 kts 278°
2026-04-25 02:52 32.09688 -108.67516 35852 ft 354 kts 277°
2026-04-25 02:53 32.10432 -108.73256 35851 ft 354 kts 278°
2026-04-25 02:53 32.11172 -108.78983 35781 ft 352 kts 277°
2026-04-25 02:54 32.11904 -108.84682 35777 ft 351 kts 277°
2026-04-25 02:54 32.12636 -108.90374 35780 ft 351 kts 277°
2026-04-25 02:55 32.13364 -108.96074 35783 ft 351 kts 277°
2026-04-25 02:55 32.14087 -109.01777 35790 ft 352 kts 277°
2026-04-25 02:56 32.14813 -109.07491 35796 ft 352 kts 277°
2026-04-25 02:56 32.15542 -109.13199 35786 ft 352 kts 277°
2026-04-25 02:57 32.16264 -109.18901 35796 ft 351 kts 277°
2026-04-25 02:57 32.16980 -109.24601 35799 ft 351 kts 277°
2026-04-25 02:58 32.17787 -109.30277 35833 ft 352 kts 282°
2026-04-25 02:58 32.18983 -109.35869 35800 ft 351 kts 282°
2026-04-25 02:59 32.20174 -109.41451 35805 ft 351 kts 281°
2026-04-25 02:59 32.21356 -109.47045 35794 ft 351 kts 281°
2026-04-25 03:00 32.22533 -109.52636 35806 ft 351 kts 281°
2026-04-25 03:00 32.23697 -109.58176 35800 ft 349 kts 281°
2026-04-25 03:01 32.24873 -109.63746 35802 ft 349 kts 281°
2026-04-25 03:01 32.26043 -109.69316 35809 ft 349 kts 281°
2026-04-25 03:02 32.27216 -109.74897 35808 ft 350 kts 281°
2026-04-25 03:02 32.28382 -109.80475 35803 ft 350 kts 281°
2026-04-25 03:03 32.29545 -109.86060 35802 ft 350 kts 281°
2026-04-25 03:03 32.30703 -109.91646 35805 ft 350 kts 281°
2026-04-25 03:04 32.31863 -109.97236 35817 ft 350 kts 281°
2026-04-25 03:04 32.33023 -110.02830 35846 ft 350 kts 281°
2026-04-25 03:05 32.34756 -110.11211 35831 ft 350 kts 281°
2026-04-25 03:05 32.35905 -110.16809 35816 ft 350 kts 281°
2026-04-25 03:06 32.37048 -110.22398 35760 ft 353 kts 281°
2026-04-25 03:06 32.37630 -110.25258 35456 ft 360 kts 281°
2026-04-25 03:06 32.38216 -110.28121 34983 ft 356 kts 281°
2026-04-25 03:07 32.38799 -110.30957 34445 ft 354 kts 281°
2026-04-25 03:07 32.39383 -110.33793 33846 ft 355 kts 281°
2026-04-25 03:07 32.39965 -110.36634 33127 ft 356 kts 281°
2026-04-25 03:07 32.40544 -110.39482 32519 ft 355 kts 281°
2026-04-25 03:08 32.41116 -110.42296 32156 ft 349 kts 281°
2026-04-25 03:08 32.41681 -110.45072 31736 ft 345 kts 281°
2026-04-25 03:08 32.42241 -110.47827 31318 ft 344 kts 281°
2026-04-25 03:08 32.42799 -110.50573 30915 ft 342 kts 281°
2026-04-25 03:09 32.43355 -110.53317 30501 ft 342 kts 281°
2026-04-25 03:09 32.43908 -110.56052 30087 ft 341 kts 281°
2026-04-25 03:09 32.44458 -110.58777 29643 ft 340 kts 281°
2026-04-25 03:09 32.45003 -110.61491 29203 ft 339 kts 281°
2026-04-25 03:10 32.45545 -110.64196 28795 ft 337 kts 280°
2026-04-25 03:10 32.46084 -110.66893 28380 ft 336 kts 279°
2026-04-25 03:10 32.46669 -110.69569 27997 ft 336 kts 285°
2026-04-25 03:10 32.47610 -110.72105 27570 ft 341 kts 294°
2026-04-25 03:11 32.48938 -110.74545 27149 ft 359 kts 299°
2026-04-25 03:11 32.50356 -110.77027 26713 ft 366 kts 298°
2026-04-25 03:11 32.51784 -110.79516 26282 ft 365 kts 298°
2026-04-25 03:11 32.53210 -110.82002 25861 ft 366 kts 298°
2026-04-25 03:12 32.54633 -110.84489 25417 ft 364 kts 298°
2026-04-25 03:12 32.56048 -110.86969 24983 ft 362 kts 298°
2026-04-25 03:12 32.57456 -110.89436 24558 ft 361 kts 298°
2026-04-25 03:12 32.58859 -110.91893 24128 ft 359 kts 298°
2026-04-25 03:13 32.60258 -110.94343 23694 ft 358 kts 298°
2026-04-25 03:13 32.61649 -110.96782 23264 ft 357 kts 298°
2026-04-25 03:13 32.63036 -110.99213 22791 ft 355 kts 298°
2026-04-25 03:13 32.64421 -111.01642 22352 ft 354 kts 298°
2026-04-25 03:14 32.65797 -111.04058 21956 ft 353 kts 298°
2026-04-25 03:14 32.67166 -111.06466 21517 ft 351 kts 298°
2026-04-25 03:14 32.68531 -111.08870 21103 ft 350 kts 298°
2026-04-25 03:14 32.69888 -111.11264 20683 ft 348 kts 299°
2026-04-25 03:15 32.71227 -111.13616 20350 ft 340 kts 299°
2026-04-25 03:15 32.72526 -111.15898 19863 ft 336 kts 299°
2026-04-25 03:15 32.73829 -111.18192 19458 ft 334 kts 299°
2026-04-25 03:15 32.75125 -111.20478 19068 ft 333 kts 299°
2026-04-25 03:16 32.76414 -111.22752 18641 ft 332 kts 299°
2026-04-25 03:16 32.77718 -111.25054 18240 ft 331 kts 299°
2026-04-25 03:16 32.78980 -111.27289 17973 ft 330 kts 299°
2026-04-25 03:16 32.80259 -111.29555 17597 ft 330 kts 299°
2026-04-25 03:17 32.81532 -111.31811 17206 ft 328 kts 299°
2026-04-25 03:17 32.82800 -111.34062 16795 ft 327 kts 299°
2026-04-25 03:17 32.84061 -111.36300 16406 ft 325 kts 299°
2026-04-25 03:17 32.85317 -111.38532 16010 ft 324 kts 299°
2026-04-25 03:18 32.86565 -111.40752 15617 ft 322 kts 299°
2026-04-25 03:18 32.87808 -111.42963 15231 ft 321 kts 299°
2026-04-25 03:18 32.89042 -111.45155 14935 ft 314 kts 299°
2026-04-25 03:18 32.90277 -111.47236 14762 ft 305 kts 306°
2026-04-25 03:19 32.91837 -111.48939 14478 ft 305 kts 320°
2026-04-25 03:19 32.93726 -111.50128 14200 ft 311 kts 332°
2026-04-25 03:19 32.95727 -111.51099 13773 ft 310 kts 332°
2026-04-25 03:19 32.97728 -111.52067 13297 ft 311 kts 332°
2026-04-25 03:20 32.99729 -111.53034 12820 ft 310 kts 333°
2026-04-25 03:20 33.01720 -111.54000 12377 ft 309 kts 333°
2026-04-25 03:20 33.03688 -111.54958 12129 ft 301 kts 333°
2026-04-25 03:20 33.05589 -111.55885 11981 ft 290 kts 333°
2026-04-25 03:21 33.07430 -111.56784 11785 ft 284 kts 333°
2026-04-25 03:21 33.09249 -111.57682 11489 ft 282 kts 333°
2026-04-25 03:21 33.10450 -111.58279 11237 ft 282 kts 333°
2026-04-25 03:21 33.12268 -111.59183 10841 ft 284 kts 333°
2026-04-25 03:22 33.14100 -111.60091 10420 ft 286 kts 334°
2026-04-25 03:22 33.15944 -111.61001 10020 ft 288 kts 334°
2026-04-25 03:22 33.17798 -111.61917 9595 ft 290 kts 334°
2026-04-25 03:22 33.19664 -111.62842 9188 ft 289 kts 334°
2026-04-25 03:23 33.22069 -111.64027 9077 ft 279 kts 334°
2026-04-25 03:23 33.23271 -111.64628 8991 ft 279 kts 333°
2026-04-25 03:23 33.25046 -111.65603 8581 ft 280 kts 331°
2026-04-25 03:23 33.26789 -111.66627 8212 ft 279 kts 330°
2026-04-25 03:24 33.28500 -111.67651 7838 ft 268 kts 330°
2026-04-25 03:24 33.30124 -111.68617 7512 ft 254 kts 330°
2026-04-25 03:24 33.31672 -111.69532 7195 ft 245 kts 330°
2026-04-25 03:24 33.33200 -111.70435 6877 ft 244 kts 330°
2026-04-25 03:25 33.34720 -111.71332 6558 ft 243 kts 330°
2026-04-25 03:25 33.36237 -111.72224 6240 ft 243 kts 330°
2026-04-25 03:25 33.37747 -111.73108 5891 ft 239 kts 330°
2026-04-25 03:25 33.39214 -111.73983 5582 ft 232 kts 325°
2026-04-25 03:26 33.40404 -111.75212 5291 ft 223 kts 306°
2026-04-25 03:26 33.41156 -111.76794 5008 ft 218 kts 291°
2026-04-25 03:26 33.41773 -111.78450 4729 ft 217 kts 292°
2026-04-25 03:26 33.42398 -111.80096 4427 ft 217 kts 292°
2026-04-25 03:27 33.42865 -111.81795 4055 ft 214 kts 273°
2026-04-25 03:27 33.42879 -111.83546 3761 ft 208 kts 269°
2026-04-25 03:27 33.42868 -111.85231 3497 ft 195 kts 269°
2026-04-25 03:27 33.42867 -111.86794 3237 ft 182 kts 269°
2026-04-25 03:28 33.42869 -111.88270 3017 ft 179 kts 270°
2026-04-25 03:28 33.42871 -111.89685 2784 ft 157 kts 270°
2026-04-25 03:28 33.42873 -111.90933 2597 ft 144 kts 270°
2026-04-25 03:28 33.42875 -111.92111 2419 ft 140 kts 268°
2026-04-25 03:29 33.42876 -111.93264 2246 ft 141 kts 268°
2026-04-25 03:29 33.42878 -111.94448 2079 ft 141 kts 268°
2026-04-25 03:29 33.42880 -111.95599 1922 ft 141 kts 269°
2026-04-25 03:29 33.42881 -111.96788 1736 ft 139 kts 269°
2026-04-25 03:30 33.42883 -111.97936 1557 ft 138 kts 270°
2026-04-25 03:30 33.42881 -111.99095 1347 ft 138 kts 269°
2026-04-25 03:30 33.42883 -112.00251 1155 ft 139 kts 270°
2026-04-25 03:30 33.42884 -112.01269 1129 ft 88 kts 270°
2026-04-25 03:31 33.42883 -112.01798 1127 ft 55 kts 270°
2026-04-25 03:31 33.42885 -112.02199 1124 ft 42 kts 270°
2026-04-25 03:31 33.42905 -112.02453 1117 ft 23 kts 289°
2026-04-25 03:31 33.42976 -112.02542 1124 ft 6 kts 341°
2026-04-25 03:32 33.42990 -112.02547 1122 ft 3 kts 347°
2026-04-25 03:32 33.43037 -112.02547 1122 ft 10 kts
2026-04-25 03:32 33.43121 -112.02538 1124 ft 13 kts 359°
2026-04-25 03:32 33.43202 -112.02514 1120 ft 13 kts 47°
2026-04-25 03:33 33.43263 -112.02464 1118 ft 9 kts 347°
2026-04-25 03:33 33.43302 -112.02509 1121 ft 8 kts 309°
2026-04-25 03:33 33.43359 -112.02521 1115 ft 6 kts 359°
2026-04-25 03:33 33.43400 -112.02520 1122 ft 3 kts
2026-04-25 03:34 33.43416 -112.02520 1116 ft 1 kts
2026-04-25 03:34 33.43426 -112.02520 1117 ft 0 kts